Location: Albany
(35.0000°S, 118.0000°E)
Time: 20:33:02
(UTC-04:00)

JAS-1B - Pass Details

Date: 22 February 2018
Orbit: 912 x 1743 km, 99.1° (Epoch: 20 June)

Event Time Altitude Azimuth Distance (km) Brightness Sun altitude
Rises 09:57:16 0° 159° (SSE) 4,567 10.9 -40.7°
Reaches altitude 10° 10:00:11 10° 151° (SSE) 3,686 10.3 -41.0°
Enters shadow 10:04:58 32° 127° (SE) 2,515 9.1 -41.4°
